ATLAS 5 CENTAUR DEB, 46654

Orbit data source: Space-Track

ATLAS 5 CENTAUR DEB, 46654 is space debris in HEO originally from a launch on Wed, 17 Sep 2014 UTC launched from the Air Force Eastern Test Range (AFETR). Debris objects in space refer to the collection of defunct objects orbiting the Earth. Examples of debris include non-operational satellites, rocket bodies, and fragments generated from explosions, collisions, or faulty payload assembly.

Loading next visibility...
Identifier
46654, 2014-055DD
Orbit
HEO
Country
Flag of USUS
Related business
Flag of USUnited Launch Alliance/Lockheed Martin (US)
Manufacturer
Unknown
Mission
Spacecraft
Bus & Motor
Unknown
Mass
Unknown
Launch date (UTC)
2014-09-17 (11 years ago)
Launch vehicle
Unknown
Launch site
Air Force Eastern Test Range (AFETR)
Object type
Payload
Rocket body
Debris
Shape & HBR
Unknown shape, 1.1 m
Radar Cross Section
Small (<0.1 m²)

Expand to show TLE details & history
Last TLE update: 3 weeks ago

TLE from 3 weeks ago
0 ATLAS 5 CENTAUR DEB
1 46654U 14055DD  25266.08722210  .00000042  00000-0  00000-0 0  9999
2 46654  21.0247 110.8542 5048183 224.2608  82.0954  1.96035349 35553
Epoch: 2025-09-23T02:05Z
TLE epoch observation values (Epoch: 2025-09-23T02:05:35.989Z)
Latitude
-0.00005°
Longitude
77.3357°
Altitude
25,076.163 km
Speed
3.25 km/s
True Right ascension
07h 23m 40s
True Declination
0° 00' 00"
Sunlit
Object was in daylight at epoch
Visualization orbit readout
Latitude
Unknown
Longitude
Unknown
Altitude
Unknown
Speed
Unknown
Apparent Right ascension
Unknown
Apparent Declination
Unknown
Sunlit
N/A
Visualization observer readout
Local Sidereal Time
16:55:02
Azimuth
Unknown
Elevation
Unknown
Doppler factor
Unknown
Orbital elements
Apogee altitude
34,206.616 km
Perigee altitude
6,976.849 km
Semi-major axis
26,969.869 km
Eccentricity
0.50482
Inclination
21.0247°
RAAN
110.8542°
Arg. of periapsis
224.2608°
True anomaly
135.77542°
Mean anomaly
82.0954°
Eccentric anomaly
109.38041°
Mean motion
0.49003 °/min
Orbital period
734.65 mins
BSTAR
0
Loading maneuver chart data...
Computing Atmospheric mass density...

Documentation

Showing up to 5 results
|